Suffolk, VA

10:06 AM EDT on May 30, 2017 (GMT -0400)
Suffolk Municipal

Weather History for KSFQ - December, 2012

Change the Weather History Date:

Thursday, December 13, 2012

  Actual Average Record
Temperature  
Mean Temperature 42 °F -  
Max Temperature 51 °F 54 °F 74 °F (1956)
Min Temperature 33 °F 34 °F 10 °F (1962)
Degree Days  
Heating Degree Days 23    
Moisture  
Dew Point 39 °F    
Average Humidity 80    
Maximum Humidity 100    
Minimum Humidity 62    
Precipitation  
Precipitation 0.13 in - - ()
Sea Level Pressure  
Sea Level Pressure 30.33 in    
Wind  
Wind Speed 10 mph (NNE)    
Max Wind Speed 15 mph    
Max Gust Speed 23 mph    
Visibility 10 miles    
Events Rain    
Averages and records for this station are not official NWS values.
T = Trace of Precipitation, MM = Missing Value Source: NWS Daily Summary

Daily Weather History Graph

Daily Weather History Graph

Search for Another Location

Airport or City:

Trip Planner

Search our weather history database for the weather conditions in past years. The results will help you decide how hot, cold, wet, or windy it might be!

Date:

Astronomy

Dec. 13, 2012 Rise Set
Actual Time 7:10 AM EST 4:51 PM EST
Civil Twilight 6:41 AM EST 5:20 PM EST
Nautical Twilight 6:09 AM EST 5:52 PM EST
Astronomical Twilight 5:37 AM EST 6:23 PM EST
Moon 7:17 AM EST (12/13) 5:30 PM EST (12/13)
Length of Visible Light 10h 38m
Length of Day
9h 40m
New Moon, 0% of the Moon is Illuminated
Dec 13
New Moon
Dec 20
First Quarter
Dec 28
Full
Jan 4
Last Quarter
Jan 11
New

Hourly Weather History & Observations

Time (EST) Temp. Windchill Dew Point Humidity Pressure Visibility Wind Dir Wind Speed Gust Speed Precip Events Conditions
12:15 AM 44.6 °F 38.1 °F 37.4 °F 76% 30.29 in 10.0 mi NNE 13.8 mph 21.9 mph N/A   Light Drizzle
12:35 AM 44.6 °F 38.4 °F 37.4 °F 76% 30.29 in 10.0 mi NNE 12.7 mph 17.3 mph N/A   Light Drizzle
12:55 AM 44.6 °F 39.2 °F 37.4 °F 76% 30.30 in 10.0 mi NNE 10.4 mph 16.1 mph N/A Rain Light Rain
1:15 AM 44.6 °F 37.8 °F 37.4 °F 76% 30.31 in 10.0 mi NNE 15.0 mph 21.9 mph N/A Rain Light Rain
1:35 AM 44.6 °F 39.7 °F 39.2 °F 81% 30.31 in 10.0 mi NNE 9.2 mph - 0.01 in Rain Light Rain
1:55 AM 42.8 °F 38.0 °F 39.2 °F 87% 30.32 in 10.0 mi NNE 8.1 mph - 0.01 in Rain Light Rain
2:15 AM 42.8 °F 36.2 °F 39.2 °F 87% 30.31 in 10.0 mi NNE 12.7 mph 17.3 mph 0.01 in Rain Light Rain
2:35 AM 42.8 °F 37.0 °F 39.2 °F 87% 30.29 in 10.0 mi NNE 10.4 mph 19.6 mph 0.01 in   Light Drizzle
2:55 AM 44.6 °F 39.2 °F 39.2 °F 81% 30.31 in 10.0 mi NNE 10.4 mph 19.6 mph 0.01 in   Mostly Cloudy
3:15 AM 42.8 °F 35.8 °F 39.2 °F 87% 30.31 in 10.0 mi NNE 13.8 mph 18.4 mph N/A Rain Light Rain
3:35 AM 42.8 °F 37.5 °F 39.2 °F 87% 30.32 in 10.0 mi NNE 9.2 mph 18.4 mph 0.02 in Rain Light Rain
3:55 AM 42.8 °F 38.0 °F 39.2 °F 87% 30.31 in 10.0 mi NNE 8.1 mph - 0.04 in Rain Light Rain
4:15 AM 42.8 °F 36.6 °F 39.2 °F 87% 30.30 in 10.0 mi North 11.5 mph - 0.01 in Rain Light Rain
4:35 AM 42.8 °F 38.6 °F 39.2 °F 87% 30.32 in 7.0 mi North 6.9 mph - 0.01 in Rain Rain
4:55 AM 42.8 °F 38.0 °F 39.2 °F 87% 30.32 in 5.0 mi North 8.1 mph - 0.03 in Rain Rain
5:15 AM 42.8 °F 38.0 °F 39.2 °F 87% 30.29 in 7.0 mi North 8.1 mph - 0.01 in Rain Light Rain
5:35 AM 42.8 °F 37.0 °F 41.0 °F 93% 30.29 in 7.0 mi NNE 10.4 mph - 0.03 in Rain Light Rain
5:55 AM 42.8 °F 37.0 °F 41.0 °F 93% 30.30 in 7.0 mi NNE 10.4 mph - 0.03 in Rain Light Rain
6:15 AM 42.8 °F 37.0 °F 39.2 °F 87% 30.30 in 10.0 mi NNE 10.4 mph 16.1 mph 0.01 in   Light Drizzle
6:35 AM 42.8 °F 37.5 °F 39.2 °F 87% 30.31 in 7.0 mi North 9.2 mph - 0.01 in   Scattered Clouds
6:55 AM 42.8 °F 37.5 °F 39.2 °F 87% 30.31 in 10.0 mi NNE 9.2 mph - 0.01 in   Overcast
7:15 AM 42.8 °F 38.6 °F 39.2 °F 87% 30.32 in 10.0 mi North 6.9 mph - N/A   Mostly Cloudy
7:35 AM 42.8 °F 37.5 °F 39.2 °F 87% 30.32 in 10.0 mi North 9.2 mph - N/A   Scattered Clouds
7:55 AM 42.8 °F 37.0 °F 39.2 °F 87% 30.32 in 10.0 mi NNE 10.4 mph - N/A   Scattered Clouds
8:15 AM 42.8 °F 35.8 °F 39.2 °F 87% 30.32 in 10.0 mi NNE 13.8 mph 19.6 mph N/A   Mostly Cloudy
8:35 AM 44.6 °F 39.2 °F 39.2 °F 81% 30.33 in 10.0 mi North 10.4 mph - N/A   Mostly Cloudy
8:55 AM 44.6 °F 39.7 °F 41.0 °F 87% 30.34 in 10.0 mi North 9.2 mph 16.1 mph N/A   Overcast
9:15 AM 46.4 °F 41.9 °F 41.0 °F 81% 30.35 in 10.0 mi North 9.2 mph 16.1 mph N/A   Mostly Cloudy
9:35 AM 46.4 °F 41.9 °F 41.0 °F 81% 30.35 in 10.0 mi NNE 9.2 mph 17.3 mph N/A   Mostly Cloudy
9:55 AM 46.4 °F 40.7 °F 41.0 °F 81% 30.35 in 10.0 mi North 12.7 mph 17.3 mph N/A   Overcast
10:15 AM 46.4 °F 41.5 °F 41.0 °F 81% 30.36 in 10.0 mi North 10.4 mph 16.1 mph N/A   Overcast
10:55 AM 48.2 °F - 42.8 °F 82% 30.35 in 10.0 mi North 10.4 mph 23.0 mph N/A   Scattered Clouds
11:15 AM 50.0 °F - 42.8 °F 76% 30.35 in 10.0 mi North 15.0 mph 20.7 mph N/A   Mostly Cloudy
11:35 AM 51.8 °F - 42.8 °F 71% 30.35 in 10.0 mi North 12.7 mph 19.6 mph N/A   Scattered Clouds
11:55 AM 51.8 °F - 42.8 °F 71% 30.35 in 10.0 mi NE 13.8 mph 23.0 mph N/A   Mostly Cloudy
12:15 PM 51.8 °F - 42.8 °F 71% 30.35 in 10.0 mi North 13.8 mph 18.4 mph N/A   Mostly Cloudy
12:35 PM 51.8 °F - 42.8 °F 71% 30.35 in 10.0 mi NNE 10.4 mph 20.7 mph N/A   Scattered Clouds
12:55 PM 51.8 °F - 42.8 °F 71% 30.35 in 10.0 mi NE 13.8 mph 19.6 mph N/A   Scattered Clouds
1:15 PM 51.8 °F - 42.8 °F 71% 30.35 in 10.0 mi NE 11.5 mph 18.4 mph N/A   Scattered Clouds
1:35 PM 51.8 °F - 41.0 °F 67% 30.34 in 10.0 mi NNE 12.7 mph 18.4 mph N/A   Scattered Clouds
1:55 PM 51.8 °F - 41.0 °F 67% 30.34 in 10.0 mi NE 12.7 mph 21.9 mph N/A   Mostly Cloudy
2:15 PM 51.8 °F - 41.0 °F 67% 30.34 in 10.0 mi North 9.2 mph - N/A   Mostly Cloudy
2:35 PM 51.8 °F - 41.0 °F 67% 30.34 in 10.0 mi NNE 9.2 mph - N/A   Overcast
2:55 PM 51.8 °F - 41.0 °F 67% 30.34 in 10.0 mi NE 11.5 mph 16.1 mph N/A   Scattered Clouds
3:15 PM 51.8 °F - 41.0 °F 67% 30.34 in 10.0 mi NNE 9.2 mph - N/A   Scattered Clouds
3:35 PM 51.8 °F - 39.2 °F 62% 30.34 in 10.0 mi North 9.2 mph 16.1 mph N/A   Clear
3:55 PM 50.0 °F - 39.2 °F 66% 30.35 in 10.0 mi North 9.2 mph - N/A   Clear
4:15 PM 48.2 °F - 39.2 °F 71% 30.35 in 10.0 mi NNE 6.9 mph - N/A   Clear
4:35 PM 48.2 °F - 39.2 °F 71% 30.35 in 10.0 mi NNE 8.1 mph - N/A   Clear
4:55 PM 46.4 °F 43.5 °F 39.2 °F 76% 30.34 in 10.0 mi NNE 5.8 mph - N/A   Clear
5:35 PM 44.6 °F 42.2 °F 37.4 °F 76% 30.34 in 10.0 mi NNE 4.6 mph - N/A   Clear
5:55 PM 44.6 °F 43.1 °F 37.4 °F 76% 30.34 in 10.0 mi NNE 3.5 mph - N/A   Clear
6:35 PM 44.6 °F 43.1 °F 37.4 °F 76% 30.35 in 10.0 mi North 3.5 mph - N/A   Clear
6:55 PM 44.6 °F 42.2 °F 37.4 °F 76% 30.35 in 10.0 mi NNE 4.6 mph - N/A   Clear
8:15 PM 42.8 °F 41.1 °F 35.6 °F 76% 30.36 in 10.0 mi North 3.5 mph - N/A   Clear
8:35 PM 42.8 °F 41.1 °F 35.6 °F 76% 30.36 in 10.0 mi North 3.5 mph - N/A   Clear
8:55 PM 42.8 °F 41.1 °F 35.6 °F 76% 30.35 in 10.0 mi North 3.5 mph - N/A   Clear
9:15 PM 41.0 °F 39.0 °F 35.6 °F 81% 30.35 in 10.0 mi North 3.5 mph - N/A   Clear
9:35 PM 41.0 °F 39.0 °F 35.6 °F 81% 30.36 in 10.0 mi North 3.5 mph - N/A   Clear
9:55 PM 41.0 °F - 35.6 °F 81% 30.36 in 10.0 mi Calm Calm - N/A   Clear
10:15 PM 37.4 °F 34.9 °F 35.6 °F 93% 30.36 in 10.0 mi NNW 3.5 mph - N/A   Clear
10:35 PM 35.6 °F - 33.8 °F 93% 30.35 in 10.0 mi Calm Calm - N/A   Clear
10:55 PM 37.4 °F - 35.6 °F 93% 30.35 in 10.0 mi Calm Calm - N/A   Clear
11:15 PM 33.8 °F 30.8 °F 33.8 °F 100% 30.36 in 10.0 mi NW 3.5 mph - N/A   Clear
11:35 PM 33.8 °F - 32.0 °F 93% 30.35 in 10.0 mi Calm Calm - N/A   Clear
11:55 PM 33.8 °F - 32.0 °F 93% 30.34 in 10.0 mi Calm Calm - N/A   Clear